Location: Asis
(14.1331°N, 120.9056°E)
Time: 03:15:35
(UTC+00:00)

GEOS 3 Rocket - Pass Details

Date: 15 January 2026
Orbit: 768 x 845 km, 115.0° (Epoch: 17 February)

Event Time Altitude Azimuth Distance (km) Brightness Sun altitude
Exits shadow 11:53:23 49° 183° (S) 1,059 4.2 -29.8°
Drops below altitude 10° 11:57:15 10° 202° (SSW) 2,415 6.5 -30.7°
Sets 11:59:33 0° 204° (SSW) 3,336 7.3 -31.2°
